Location: �quirre
(50.4736°N, 2.2351°E)
Time: 06:19:27
(UTC+00:00)

Cosmos 2322 Rocket - Pass Details

Date: 07 August 2020
Orbit: 831 x 852 km, 71.0° (Epoch: 23 September)

Event Time Altitude Azimuth Distance (km) Brightness Sun altitude
Rises 00:09:31 0° 320° (NW) 3,419 6.1 -23.1°
Reaches altitude 10° 00:12:36 10° 304° (NW) 2,482 5.0 -23.1°
Maximum altitude 00:16:33 20° 260° (W) 1,886 3.9 -23.0°
Enters shadow 00:17:05 19° 253° (WSW) 1,898 3.8 -23.0°
